Regional Weather Roundup
Issued by NWS Pendleton, OR

Home | Current Version | Previous Version | Text Only | Print | Product List | Glossary On
Versions: 1 2 3 4 5 6 7 8 9 10 11 12 13 14 15 16 17 18 19 20 21 22 23 24 25 26 27 28 29 30 31 32 33 34 35 36 37 38 39 40 41 42 43 44 45 46 47 48 49 50
000
ASUS46 KPDT 041625
RWRPDT
PENDLETON REGIONAL WEATHER ROUNDUP
NATIONAL WEATHER SERVICE PENDLETON OREGON
900 AM PDT SAT JUL 4 2015

NOTE: FAIR INDICATES FEW OR NO CLOUDS BELOW 12,000 FEET WITH NO
SIGNIFICANT WEATHER AND/OR OBSTRUCTIONS TO VISIBILITY.

# INDICATES UNOFFICIAL STATION AND DATA

WAZ520-041710-
EAST SLOPES OF WASHINGTON CASCADES

CITY            SKY/WX      TMP DP  RH  WIND    PRES   REMARKS
#BULLFROG 2SW   N/A         78  47  34  S1      27.49F
#BUMPING DAM    N/A         64  N/A N/A S3      N/A
#CLE ELUM HS    N/A         78  42  28  W6      29.82S
#CLE ELUM LAKE  N/A         76  48  37  CALM    29.70F
#CLIFFDEL 2NW   N/A         70  48  46  CALM    N/A
#GLENWOOD       N/A         71  56  59  CALM    29.76F
#MANASTASH CYN  N/A         78  46  32  CALM    29.86F
#NELSON         N/A         79  50  36  CALM    29.73F
#NELSON 3SW     N/A         75  48  38  CALM    29.90S
#NILE           N/A         81  49  33  NE1     29.04F
#RONALD 2NW     N/A         73  48  41  W1      29.79F
#SNOWDEN        N/A         72  41  33  CALM    N/A
#TEANAWAY 4NE   N/A         76  52  43  CALM    N/A
#TROUT LAKE 1NE N/A         75  58  56  CALM    29.73S
$$

WAZ521-041710-
SIMCOE HIGHLANDS

CITY            SKY/WX      TMP DP  RH  WIND    PRES   REMARKS
#BICKLETON HS   N/A         81  36  20  N7      N/A
#CENTERVILLE 1SWN/A         79  55  44  W3      29.70F
#GOLDENDALE     N/A         74  53  48  W2      N/A
#GOLDENDALE 5WNWN/A         76  55  48  NW5     29.71F
#GOODNOE HILLS  N/A         82  55  40  W12     N/A
#LYLE 6NE       N/A         72  55  55  S3      29.72S
$$

WAZ026-041710-
KITTITAS VALLEY

CITY            SKY/WX      TMP DP  RH  WIND    PRES   REMARKS
ELLENSBURG AP   SUNNY       85  46  26  NW15    29.82F
YTC-OPS AREA    N/A         81  39  22  W13     29.88R
#ELLENSBURG CWU N/A         83  46  27  NW7     29.66F
#ELLENSBURG 3NE N/A         81  48  32  N6      29.83S
#KITTITAS 3S    N/A         77  56  48  CALM    29.70F
#THORP 6N       N/A         77  47  35  NW12    29.72F
$$

WAZ027-041710-
YAKIMA VALLEY

CITY            SKY/WX      TMP DP  RH  WIND    PRES   REMARKS
SUNNYSIDE AP    SUNNY       79  52  39  CALM    29.78S
YAKIMA AIRPORT  SUNNY       88  48  25  N6      29.80F
#DONALD 2NE     N/A         94  25   8  CALM    28.64F HX 89
#GRANDVIEW      N/A         82  56  41  W1      29.73F
#MABTON         N/A         81  58  46  W2      29.77S
#MOXEE 2E       N/A         85  24  11  SW6     29.71F
#NACHES 2SW     N/A         81  48  32  W7      29.84R
#OUTLOOK DOT    N/A         N/A N/A N/A CALM    N/A
#SELAH 8E       N/A         86  41  21  N8      N/A
#TERRACE HTS    N/A         83  53  36  CALM    29.66F
#TOPPENISH      N/A         82  55  40  W3      29.64F
#WAPATO 4NE     N/A         94  25   8  CALM    28.64F HX 89
#WEST VALLEY    N/A         85  49  29  NW1     29.68F
#W YAKIMA       N/A         84  51  32  NE3     29.70F
#WHITE SWAN 5E  N/A         83  61  48  CALM    29.72F
#WILEY CITY 3W  N/A         86  44  23  CALM    29.78F
$$

WAZ028-041710-
LOWER COLUMBIA BASIN...WASHINGTON

CITY            SKY/WX      TMP DP  RH  WIND    PRES   REMARKS
PASCO           SUNNY       87  53  31  SW7     29.76S
RICHLAND AWOS   SUNNY       88  52  29  W3      29.76S
#BASIN CITY 5SW N/A         80  59  49  S2      29.76S
#BENTON CITY    N/A         83  54  37  W3      29.63S
#CONNELL 5N     N/A         83  52  34  SW7     29.70S
#CONNELL 5NW    N/A         80  58  47  SW3     29.67S
#ELTOPIA 6NW    N/A         79  61  54  S3      28.76S
#KAHLOTUS       N/A         84  49  30  W10     29.70R
#KENNEWICK      N/A         78  47  34  S1      27.49F
#KENNEWICK 3S   N/A         82  55  40  N3      29.71F
#PATERSON       N/A         77  59  54  NE2     29.72F
#PROSSER        N/A         82  45  27  NW3     29.71S
#SAGEMOOR 2W    N/A         81  57  44  SE3     29.57S
#TOUCHET 2S     N/A         85  56  37  SW12    29.70F
#WEST PASCO     N/A         89  59  37  CALM    29.75S
$$

WAZ029-041710-
FOOTHILLS OF THE BLUES...WASHINGTON

CITY            SKY/WX      TMP DP  RH  WIND    PRES   REMARKS
WALLA WALLA AP  SUNNY       88  45  23  SW13    29.81F
#DAYTON SCHOOL  N/A         83  42  24  N7      29.82F
#LOWDEN 2SE     N/A         87  55  34  W3      29.73F
#PLEASANT VIEW 1N/A         84  47  28  S12     29.72S
#PRESCOTT       N/A         85  52  32  SE3     29.71F
#SUDBURY        N/A         88  N/A N/A CALM    N/A
#WAITSBURG 5S   N/A         84  46  27  SW7     29.78F
#WAITSBURG 8N   N/A         84  30  14  S16     29.65S
#WALLA WALLA U  N/A         87  51  29  CALM    29.72F
#WHITMAN MISSIONN/A         86  51  30  CALM    29.74F
$$

WAZ030-041710-
BLUE MOUNTAINS...WASHINGTON

CITY            SKY/WX      TMP DP  RH  WIND    PRES   REMARKS
#DIXIE 5SE      N/A         87  45  23  W1      29.84F
$$

ORZ009-041-WAZ024-041710-
COLUMBIA RIVER GORGE

CITY            SKY/WX      TMP DP  RH  WIND    PRES   REMARKS
HOOD RIVER AP   SUNNY       75  57  54  CALM    29.82S
THE DALLES AP   SUNNY       81  54  39  N13     29.78F
#ARLINGTON AIRPON/A         81  55  41  W12     32.28S
#ARLINGTON HS   N/A         83  53  36  CALM    29.64F
#CELILO DOT     N/A         83  59  44  W6      N/A
#MOSIER 1S      N/A         74  45  35  W2      29.79S
#MURDOCK        N/A         79  59  50  NW10    29.78F
#RUFUS DOT      N/A         80  59  49  SW5     N/A

$$

ORZ510-041710-
NORTH CENTRAL OREGON

CITY            SKY/WX      TMP DP  RH  WIND    PRES   REMARKS
#CHENOWITH 1W   N/A         73  52  48  W20     N/A
#COW CYN RST AREN/A         75  N/A N/A SW8     N/A
#DUFUR 9E       N/A         78  48  35  E2      29.77S
#GRASS VALLEY 1SN/A         82  49  32  SW8     29.75S
#KENT DOT       N/A         81  51  35  SW12    N/A
#MAUPIN SCHOOL  N/A         78  50  38  N2      29.82F
#MORO SCHOOL    N/A         81  51  35  W2      29.86F
#SHANIKO 5WSW   N/A         76  47  36  S10     N/A
#SHANIKO 4NW    N/A         76  43  31  SW3     29.97S
#TYGH VALLEY 2NEN/A         76  51  42  CALM    29.74F
#WAPANITIA AIRPON/A         83  46  27  W5      29.73F
#WASCO DOT      N/A         81  58  46  W10     N/A
#WASCO AIRPORT  N/A         79  48  34  W12     N/A
#WASCO 5NE      N/A         81  53  38  CALM    29.73F
$$

ORZ511-041710-
CENTRAL OREGON

CITY            SKY/WX      TMP DP  RH  WIND    PRES   REMARKS
BEND AIRPORT    N/A         N/A N/A N/A MISG    N/A
MADRAS AIRPORT  MOCLDY      75  46  36  S6      29.94S
PRINEVILLE AP   CLOUDY      72  37  28  CALM    29.97S
REDMOND AIRPORT CLOUDY      74  45  35  SE6     29.96S
#BEND 1SW       N/A         71  45  39  W2      N/A
#BEND-AWBREY    N/A         70  47  44  S3      29.74S
#BEND-KIM LN    N/A         69  48  47  SW5     29.96S
#CROOKED RVR RANN/A         77  47  35  SW1     29.74S
#CULVER         N/A         77  49  37  SE1     29.89F
#LAKE BILLY CHINN/A         74  -1   5  W2      29.96F
#POWELL BUTTE 3EN/A         67  47  49  E2      N/A
#POWELL BUTTE   N/A         75  49  40  N2      29.61F
#PRINEVILLE 3N  N/A         69  52  55  E1      29.74F
#WARM SPRINGS   N/A         78  49  36  CALM    29.86F

$$


ORZ509-041710-
EAST SLOPES OF OREGON CASCADES

CITY            SKY/WX      TMP DP  RH  WIND    PRES   REMARKS
#BLUE BOX PASS  N/A         68  12  11  NW3     N/A
#CAMP SHERMAN   N/A         67  47  49  CALM    29.79F
#LA PINE 4NW    N/A         70  48  46  CALM    29.81F
#SISTERS AIRPOR N/A         74  54  50  N1      30.17S
#SISTERS ODOT   N/A         74  N/A N/A CALM    N/A
#SISTERS 1NW    N/A         72  N/A N/A NE6     N/A
#SISTERS 3N     N/A         73  48  41  S2      29.95F
#SUNRIVER       N/A         70  50  49  S2      29.65F
#TUMALO 3W      N/A         74  47  38  CALM    29.64S
#WANOGA BUTTE D N/A         71  28  20  W1      N/A

$$

ORZ044-041710-
LOWER COLUMBIA BASIN...OREGON

CITY            SKY/WX      TMP DP  RH  WIND    PRES   REMARKS
HERMISTON       SUNNY       85  49  29  W8      29.78F
#BOARDMAN SCHOOLN/A         82  60  47  W6      29.76F
#BOARDMAN 8SW   N/A         84  58  41  SW12    29.72F
#ECHO 8SW       N/A         87  48  26  W12     29.78F
#IONE SCHOOL    N/A         85  46  26  W7      29.78S
#IRRIGON 4NW    N/A         80  57  45  W3      N/A
#UMATILLA SCHOOLN/A         86  65  50  NW5     29.79R
#UMATILLA       N/A         82  55  40  N2      29.69F
$$

ORZ507-041710-
NORTHERN FOOTHILLS OF THE BLUES

CITY            SKY/WX      TMP DP  RH  WIND    PRES   REMARKS
PENDLETON AIRPT PTCLDY      84  43  24  S7      29.83F
#ADAMS 3WNW     N/A         85  46  26  SW7     29.72F
#ATHENA         N/A         84  47  28  SW2     29.75S
#CAYUSE         N/A         84  49  30  SW1     29.72F
#HELIX SCHOOL   N/A         81  47  30  SW7     29.72F
#HELIX 3N       N/A         82  45  27  SW14    29.83S
#HOLDMAN 6E     N/A         83  46  27  N12     29.54S
#M-F GROVE ELEM N/A         87  42  21  S7      29.80F
#M-FREEWATER 5SEN/A         84  51  32  CALM    29.82F
#PENDLETON DNTN N/A         78  49  36  CALM    29.81S
#PDT AQUATIC CTRN/A         80  51  36  CALM    29.86S
#PDT SUNRIDGE   N/A         87  47  25  W2      29.83F
#PENDLETON 7NW  N/A         88  57  35  W7      27.36S
#PILOT ROCK     N/A         85  43  23  CALM    29.87F
#TUTUILLA       N/A         86  46  25  SW3     29.76F
#UMAPINE 2E     N/A         85  55  36  SW2     29.75F
#WESTON SCHOOL  N/A         82  43  25  NW8     29.73F

$$

ORZ508-041710-
SOUTHERN FOOTHILLS OF THE BLUES

CITY            SKY/WX      TMP DP  RH  WIND    PRES   REMARKS
#AJAX           N/A         82  41  23  SW5     29.82S
#CONDON SCHOOL  N/A         80  47  31  SW7     29.88S
#CONDON 5W      N/A         77  39  25  W9      29.91S
#FOSSIL SCHOOL  N/A         81  46  29  CALM    29.87S
#HEPPNER EOC    N/A         84  43  24  W6      29.65F
#HEPPNER 4NE    N/A         81  43  26  W9      29.70F
#LEXINGTON 2SE  N/A         89  46  23  W6      29.80S
#RUGGS 5NE      N/A         82  44  26  W13     30.07S
#RUGGS 2SW      N/A         83  44  25  W7      29.72F

$$

ORZ502-503-041710-
BLUE MOUNTAINS

CITY            SKY/WX      TMP DP  RH  WIND    PRES   REMARKS
MEACHAM         SUNNY       76  45  33  NE3     29.97S
#BATTLE MTN DOT N/A         67  54  63  SE6     N/A
#HEPPNER 15SE   N/A         74  41  30  CALM    29.90R
#LONG CREEK HS  N/A         76  41  28  CALM    29.93F
#N POWDER DOT   N/A         80  57  45  SW3     N/A
#PIKES PEAK     N/A         74  43  33  SW17G26 27.99S
#TOLLGATE       N/A         69  45  42  SW2     29.96S
#TROY SCHOOL    N/A         77  50  39  CALM    29.59F
#UKIAH          N/A         64  48  56  CALM    29.84S
#WESTON 4E      N/A         77  44  31  SW7     29.65S
$$

ORZ505-041710-
JOHN DAY BASIN

CITY            SKY/WX      TMP DP  RH  WIND    PRES   REMARKS
JOHN DAY        PTCLDY      78  39  25  W5      29.98F
#JOHN DAY KJDY  N/A         81  54  39  CALM    29.96R
#DAYVILLE SCHOOLN/A         76  38  25  CALM    29.91F
#MITCHELL       N/A         81  49  33  CALM    30.09F
#MONUMENT HS    N/A         75  41  29  CALM    29.91F
#MT. VERNON 5SE N/A         76  40  27  CALM    29.96S
#WINLOCK        N/A         81  47  30  E5      30.03S
$$

ORZ506-041710-
OCHOCO AND JOHN DAY HIGHLANDS

CITY            SKY/WX      TMP DP  RH  WIND    PRES   REMARKS
#BUCK CREEK DOT N/A         79  79  100 SW3     N/A
#HORSE RIDGE DO N/A         75  41  29  CALM    N/A
#KEYES SMT DOT  N/A         77  39  25  N5      N/A
#PAULINA SCHOOL N/A         73  43  34  CALM    29.99R
#PRAIRIE CITY   N/A         80  47  31  CALM    29.77F
#SENECA         N/A         69  N/A N/A CALM    N/A
#SENECA 9NW     N/A         65  43  45  CALM    29.75S
$$

ORZ049-041710-
GRANDE RONDE VALLEY

CITY            SKY/WX      TMP DP  RH  WIND    PRES   REMARKS
LA GRANDE       SUNNY       75  43  32  CALM    29.91F
#COVE           N/A         76  54  46  E1      29.93S
#ELGIN 3N       N/A         75  47  37  CALM    29.89F
#ELGIN 1E       N/A         70  48  46  CALM    N/A
#IMBLER SCHOOL  N/A         65  46  50  CALM    29.88F
#ISLAND CITY 4N N/A         68  56  65  S1      29.88S
#LADD CYN DOT   N/A         75  51  43  N2      N/A
#UNION 1S       N/A         74  52  46  CALM    29.66F
$$

ORZ050-041710-
WALLOWA COUNTY

CITY            SKY/WX      TMP DP  RH  WIND    PRES   REMARKS
#IMNAHA SCHOOL  N/A         82  45  27  S2      29.84F
#IMNAHA 10S     N/A         76  51  42  SW3     30.01S
#JOSEPH 3N      N/A         72  51  48  CALM    30.00S
#JOSEPH 3W      N/A         75  44  33  E2      29.86S
#LOSTINE        N/A         73  48  41  CALM    29.56F
#MT HOWARD 8000 N/A         68  35  29  NE1     30.26F
#PROMISE 1S     N/A         78  50  38  E3      29.80R
#WALLOWA SCHOOL N/A         71  49  46  CALM    29.90F



$$



USA.gov is the U.S. government's official web portal to all federal, state and local government web resources and services.